Home > Weather > Cedar Rapids > Past weeks

Flag for U.S.A. Weather for the Past 2 Weeks in Cedar Rapids, Iowa, U.S.A.

Now
20 °F

Passing clouds.


Feels Like: 3 °F
Forecast: 2 / 17 °F
Wind: 24 mph from Northwest

Location: Cedar Rapids Municipal Airport

Current Time: Feb 12, 2016 at 12:24:16 PM

Latest Report: Feb 12, 2016 at 11:52 AM


Visibility: 10 mi

Pressure: 30.38 "Hg

Humidity: 65%

Dew point: 10 °F

Location of Cedar RapidsLocation

Historic Weather in Cedar Rapids — Graph

°F

Cedar Rapids Temperature Yesterday

Maximum temperature yesterday: 21 °F (at 2:52 PM)
Minimum temperature yesterday: 3 °F (at 6:52 AM)
Average temperature yesterday: 14 °F

High & Low Weather Summary for the Past Weeks

 TemperatureHumidityPressure
High44 °F (Jan 30, 2:52 PM)100% (Jan 30, 2:52 AM)30.44 "Hg (Jan 30, 2:52 AM)
Low3 °F (Feb 11, 6:52 AM)52% (Feb 11, 1:52 PM)29.43 "Hg (Feb 3, 3:00 AM)
Average26 °F85%29.98 "Hg
* Reported Jan 28 10:52 AM — Feb 12 10:52 AM, Cedar Rapids, Weather by CustomWeather, © 2016

Note: Actual official high and low records may vary slightly from our data, if they occured in-between our weather recording intervals... More about our weather records

Advertising

Cedar Rapids Weather History for the Previous 24 Hours

 ConditionsComfort  
Time TempWeatherWind HumidityBarometerVisibility
10:52 AM
Fri, Feb 12
19 °FOvercast.22 mph71%30.37 "Hg10 mi
9:59 AM19 °FPartly sunny.23 mph74%30.30 "Hg10 mi
8:52 AM17 °FOvercast.21 mph80%30.32 "Hg7 mi
7:52 AM17 °FIce fog.12 mph88%30.30 "Hg5 mi
6:52 AM18 °FOvercast.14 mph88%30.27 "Hg8 mi
5:52 AM19 °FOvercast.17 mph88%30.25 "Hg10 mi
4:52 AM20 °FOvercast.12 mph89%30.23 "Hg10 mi
3:52 AM19 °FMostly cloudy.10 mph92%30.22 "Hg10 mi
2:52 AM19 °FOvercast.7 mph88%30.23 "Hg10 mi
1:52 AM18 °FOvercast.5 mph92%30.24 "Hg10 mi
12:52 AM17 °FMostly cloudy.5 mph88%30.25 "Hg10 mi
11:52 PM
Thu, Feb 11
17 °FClear.5 mph83%30.27 "Hg10 mi
10:52 PM19 °FOvercast.5 mph77%30.28 "Hg10 mi
9:52 PM18 °FPassing clouds.3 mph74%30.29 "Hg10 mi
8:52 PM20 °FOvercast.3 mph74%30.29 "Hg10 mi
7:52 PM21 °FOvercast.6 mph62%30.31 "Hg10 mi
6:52 PM21 °FOvercast.5 mph60%30.32 "Hg10 mi
5:52 PM21 °FMostly cloudy.6 mph57%30.30 "Hg10 mi
4:52 PM21 °FOvercast.6 mph55%30.30 "Hg10 mi
3:52 PM21 °FPartly sunny.6 mph52%30.29 "Hg10 mi
2:52 PM21 °FSunny.5 mph52%30.31 "Hg10 mi
1:52 PM20 °FSunny.5 mph52%30.34 "Hg10 mi
12:52 PM19 °FSunny.No wind59%30.37 "Hg10 mi
Weather by CustomWeather, © 2016

See weather overviewHow to use our weather pages